Regional Weather Roundup
Issued by NWS Newport/Morehead, NC

Current Version | Previous Version | Graphics & Text | Print | Product List | Glossary Off
Versions: 1 2 3 4 5 6 7 8 9 10 11 12 13 14 15 16 17 18 19 20 21 22 23 24 25 26 27 28 29 30 31 32 33 34 35 36 37 38 39 40 41 42 43 44 45 46 47 48 49 50

000
ASUS42 KMHX 300024
RWRMHX
WEATHER ROUNDUP FOR EASTERN NORTH CAROLINA
NATIONAL WEATHER SERVICE NEWPORT/MOREHEAD CITY NC
800 PM EDT WED JUL 29 2015

NOTE: "FAIR" INDICATES FEW OR NO CLOUDS BELOW 12,000 FEET
WITH NO SIGNIFICANT WEATHER AND/OR OBSTRUCTIONS TO VISIBILITY

NCZ015>017-031-032-045>047-102-103-300100-
NORTH COAST

CITY           SKY/WX    TMP DP  RH WIND       PRES   REMARKS
EDENTON          N/A     81  69  65 SE7       29.97S
ELIZABETH CITY CLEAR     81  71  71 SE12      29.98S
KITTY HAWK     CLEAR     81  70  68 SE8       29.97S
MANTEO         PTCLDY    79  71  74 SE7       29.98F

$$

NCZ045>047-081-094-103-104-300100-
CENTRAL COAST

CITY           SKY/WX    TMP DP  RH WIND       PRES   REMARKS
FRISCO         PTCLDY    82  73  74 E8        29.97F
SWANQUARTER      N/A     79 N/A N/A E3        29.94S

$$

NCZ095-097-098-100-101-300100-
SOUTHERN COAST

CITY           SKY/WX    TMP DP  RH WIND       PRES   REMARKS
BEAUFORT       MOCLDY    81  74  79 NE8G16    29.95F
CEDAR ISLAND     N/A     82 N/A N/A E15       30.00S
JACKSONVILLE   CLEAR     84  71  65 E10       29.95R
PINEY ISLAND   PTCLDY   N/A N/A N/A MISG      29.96S
WILMINGTON     PTCLDY    82  73  74 E10       29.95R


$$

NCZ011>013-027>030-043-044-078>080-089-090>093-098-300100-
COASTAL PLAIN

CITY           SKY/WX    TMP DP  RH WIND       PRES   REMARKS
AHOSKIE        CLEAR     83  71  67 SE3       29.96S
CLINTON        CLEAR     85  73  65 CALM      29.96R
ELIZABETHTOWN  CLEAR     85  73  67 SE9       29.95R
GOLDSBORO      CLEAR     86  70  58 E6        29.94R
GREENVILLE     CLEAR     82  73  74 SE6       29.99R
HAVELOCK       PTCLDY    82  71  69 E7        29.97S
KENANSVILLE    CLEAR     81  69  66 CALM      29.97R
KINSTON        CLEAR     84  70  61 SE7       29.97R
NEW BERN       CLEAR     82  70  66 E9        29.97S
RICHLANDS      CLEAR     82  68  61 E6        29.96S
ROCKY MOUNT    PTCLDY    86  69  56 SE3       29.96R
WASHINGTON     CLEAR     80  71  75 SE7       29.98R
WHITEVILLE     PTCLDY    85  71  63 E7        29.94R

$$

AMZ130-135-150-152-154-156-158-170-250-252-270-ANZ085-086-088-633-658-670-300100-
MARINE OBSERVATIONS

STATION/POSITION TIME  TEMP    WIND        PRES    WAVE   SWELL
                       AIR SEA DIR/SP/G            HT/PER HT/PER
                 (UTC) (F)     (DEG/KT/KT) (MB)    (FT/S) (FT/S)
CHESAPEAKE LIGHT 0000   80     160/ 17/ 18 1015.5
64 E VA BEACH    2350   81 83  140/ 10/ 12 1015.2    2/ 6   2/ 6
DUCK             0000   79 64                N/A
2 E DUCK         2341      80                N/A     2/ 9
OREGON INLET     0000   80 87                N/A
13E OREGON INLT  0000      82                N/A     3/ 5
HATTERAS CG      0000   81 84                N/A
DIAMOND BUOY     2350   82 85  100/ 16/ 19 1014.3    4/ 6   2/10
CAPE LOOKOUT     0000   81      50/ 14/ 16 1013.9
BEAUFORT LAB     0000   82 81                N/A
30 SE NEW RVR IN NOT AVBL
27 SE WRIGHTSVLE 0000   79 82   70/ 14/ 16   N/A
5 SE WRIGHTSVLE  2308   82 82   90/ 12/ 17 1013.7
225 S CAPE HAT   2350   83 82  220/ 14/ 16 1014.9    5/ 7   3/ 7
41 SE CHARLESTON 2350   84 85   60/ 12/ 16 1012.5    3/ 5   2/ 6

$$


USA.gov is the U.S. government's official web portal to all federal, state and local government web resources and services.